FW4370 Weather Reports


Display with metric or nautical units.
time (UTC)temp
F
wind
direction
speed
MPH
gust
MPH
rain 1hr
in
rain 24hr
in
rain mn
in
humidity
%
barometer
mb
20260831010104 77 276 2.0 6.0 0.00 0.00 0.00 44 1006.1
20260831004552 78 267 1.0 6.0 0.00 0.00 0.00 43 1005.9
20260831003059 78 224 2.0 6.0 0.00 0.00 0.00 42 1005.8
20260831001543 79 248 2.0 5.0 0.00 0.00 0.00 41 1005.9
20260831000042 79 214 1.0 9.0 0.00 0.00 0.00 40 1005.4
20260830234537 80 239 4.0 10.0 0.00 0.00 0.00 39 1005.7
20260830233036 80 188 7.0 12.0 0.00 0.00 0.00 39 1005.8
20260830231532 81 219 6.0 12.0 0.00 0.00 0.00 39 1006.0
20260830230032 81 233 5.0 11.0 0.00 0.00 0.00 38 1006.1
20260830224528 82 251 4.0 10.0 0.00 0.01 0.00 38 1006.1
20260830223125 84 244 6.0 13.0 0.00 0.01 0.00 38 1006.2
20260830221521 84 240 8.0 16.0 0.00 0.01 0.00 38 1006.3
20260830220021 84 238 7.0 14.0 0.00 0.01 0.00 38 1006.5
20260830214516 84 255 8.0 16.0 0.00 0.01 0.00 39 1006.7
20260830213012 84 220 8.0 14.0 0.00 0.01 0.00 39 1007.0
20260830211510 84 251 4.0 15.0 0.00 0.01 0.00 39 1007.4
20260830210015 85 262 7.0 14.0 0.00 0.01 0.00 40 1007.7
20260830204519 84 227 4.0 16.0 0.00 0.01 0.00 40 1007.9
20260830203059 84 253 3.0 9.0 0.00 0.01 0.00 41 1008.2
20260830201557 82 193 3.0 11.0 0.00 0.01 0.00 40 1008.3
20260830200056 83 195 7.0 13.0 0.00 0.01 0.00 41 1008.7
20260830194604 84 231 5.0 14.0 0.00 0.75 0.00 41 1008.6
20260830193050 83 202 5.0 11.0 0.00 0.75 0.00 42 1008.8
20260830191543 82 245 6.0 12.0 0.00 0.75 0.00 43 1008.8
20260830190039 81 154 3.0 11.0 0.00 0.75 0.00 44 1009.0
20260830184537 79 225 5.0 12.0 0.00 0.77 0.00 43 1009.2
20260830183036 79 278 5.0 8.0 0.00 0.77 0.00 43 1009.2
20260830181533 78 208 4.0 11.0 0.00 0.77 0.00 43 1009.4
20260830180030 81 193 3.0 13.0 0.00 0.77 0.00 44 1009.4
20260830174546 81 214 4.0 12.0 0.00 0.77 0.00 45 1009.3
20260830173028 80 304 4.0 15.0 0.00 0.77 0.00 46 1009.4
20260830171523 80 192 5.0 11.0 0.00 0.77 0.00 48 1009.3
20260830170018 79 250 5.0 12.0 0.00 0.77 0.00 51 1009.2
20260830164519 79 223 4.0 12.0 0.00 0.77 0.00 54 1009.1
20260830163023 80 201 5.0 11.0 0.00 0.77 0.00 57 1009.2
20260830161507 77 161 0.0 3.0 0.00 0.77 0.00 60 1009.2
20260830160002 74 53 1.0 5.0 0.00 0.77 0.00 61 1009.2
20260830154558 74 68 2.0 6.0 0.00 0.77 0.00 62 1009.1
20260830153051 73 79 1.0 5.0 0.00 0.77 0.00 64 1009.1
20260830151549 73 72 2.0 5.0 0.00 0.77 0.00 66 1009.1
20260830150042 72 18 0.0 2.0 0.00 0.77 0.00 67 1009.1
20260830144539 71 70 0.0 2.0 0.00 0.77 0.00 68 1009.1
20260830143033 69 129 0.0 3.0 0.00 0.77 0.00 69 1009.2
20260830141529 68 20 0.0 4.0 0.00 0.77 0.00 70 1009.0
20260830140030 67 103 0.0 1.0 0.00 0.77 0.00 70 1009.0
20260830134522 65 61 0.0 1.0 0.00 0.77 0.00 69 1008.8
20260830133022 63 84 0.0 4.0 0.00 0.77 0.00 68 1008.5
20260830131513 62 274 0.0 1.0 0.00 0.77 0.00 68 1008.2
20260830130009 63 10 0.0 3.0 0.00 0.77 0.00 67 1007.9
20260830124509 63 32 0.0 1.0 0.00 0.77 0.00 67 1007.9
20260830123006 62 321 0.0 1.0 0.00 0.77 0.00 66 1007.9
20260830121504 63 320 0.0 1.0 0.00 0.77 0.00 65 1007.9
20260830120002 63 46 0.0 2.0 0.00 0.77 0.00 64 1007.7
20260830114559 63 49 0.0 1.0 0.00 0.77 0.00 63 1007.8
20260830113056 63 51 0.0 1.0 0.00 0.77 0.00 62 1007.6
20260830111552 64 310 0.0 1.0 0.00 0.77 0.00 62 1007.5
20260830110049 64 12 0.0 3.0 0.00 0.77 0.00 61 1007.5
20260830104558 65 326 1.0 4.0 0.00 0.77 0.00 60 1007.5
20260830103045 66 318 1.0 2.0 0.00 0.77 0.00 60 1007.3
20260830101555 67 217 0.0 3.0 0.00 0.77 0.00 60 1007.1
20260830100040 68 118 1.0 5.0 0.00 0.77 0.00 60 1007.0
20260830094538 67 138 2.0 7.0 0.00 0.77 0.00 60 1007.1
20260830093037 67 84 1.0 3.0 0.00 0.77 0.00 60 1007.1
20260830091534 67 103 2.0 5.0 0.00 0.77 0.00 60 1007.2
20260830090033 67 115 2.0 5.0 0.00 0.77 0.00 61 1007.3
20260830084530 68 175 1.0 8.0 0.00 0.77 0.00 61 1007.2
20260830083027 66 181 4.0 9.0 0.00 0.77 0.00 60 1007.2
20260830081524 64 85 1.0 6.0 0.00 0.77 0.00 59 1007.2
20260830080020 65 72 2.0 3.0 0.00 0.77 0.00 58 1006.8
20260830074521 65 82 0.0 1.0 0.00 0.77 0.00 57 1006.9
20260830073014 66 19 0.0 1.0 0.00 0.77 0.00 57 1006.6
20260830071524 67 36 0.0 2.0 0.00 0.77 0.00 57 1006.6
20260830070018 67 22 1.0 5.0 0.00 0.77 0.77 56 1006.6
20260830064505 67 4 0.0 0.0 0.00 0.77 0.77 55 1006.5
20260830063004 67 255 0.0 1.0 0.00 0.77 0.77 55 1006.5
20260830061502 66 122 0.0 4.0 0.00 0.77 0.77 54 1006.7
20260830060100 67 222 0.0 0.0 0.00 0.77 0.77 52 1006.6
20260830054604 67 80 0.0 1.0 0.00 0.77 0.77 51 1006.7
20260830053057 67 56 1.0 5.0 0.00 0.77 0.77 50 1007.0
20260830051555 69 49 3.0 7.0 0.00 0.77 0.77 49 1007.0
20260830050115 71 38 0.0 0.0 0.00 0.77 0.77 49 1006.9
20260830044549 71 100 0.0 0.0 0.00 0.77 0.77 49 1006.8
20260830043049 71 101 0.0 0.0 0.00 0.77 0.77 48 1006.6
20260830041611 72 101 0.0 0.0 0.00 0.77 0.77 48 1006.5
20260830040047 72 104 0.0 3.0 0.00 0.77 0.77 49 1006.5
20260830034543 72 136 0.0 5.0 0.00 0.77 0.77 49 1006.5
20260830033042 71 125 2.0 4.0 0.00 0.77 0.77 48 1006.3
20260830031539 71 221 0.0 0.0 0.00 0.77 0.77 48 1006.0
20260830030041 72 160 0.0 0.0 0.00 0.77 0.77 47 1005.7
20260830024537 73 259 0.0 0.0 0.00 0.77 0.77 46 1005.2
20260830023033 74 231 0.0 3.0 0.00 0.77 0.77 46 1005.0
20260830021542 75 219 0.0 3.0 0.00 0.77 0.77 46 1004.9
20260830020032 76 217 0.0 8.0 0.00 0.77 0.77 46 1004.8
20260830014518 77 218 0.0 0.0 0.00 0.77 0.77 46 1004.5
20260830013015 78 207 0.0 3.0 0.00 0.77 0.77 46 1004.7
20260830011515 78 113 0.0 5.0 0.00 0.77 0.77 46 1004.8